DW8947 Weather Reports


time (UTC)temp
F
wind
direction
speed
knots
gust
knots
rain 1hr
in
rain 24hr
in
rain mn
in
humidity
%
barometer
mb
20260904034704 58 69 0.0 0.0 0.00 0.03 0.03 77 1008.9
20260904034204 58 69 0.0 0.0 0.00 0.03 0.03 77 1008.8
20260904033204 58 69 0.0 0.0 0.00 0.03 0.03 78 1008.8
20260904032704 59 69 0.0 0.0 0.00 0.03 0.03 78 1008.7
20260904032204 59 69 0.0 0.0 0.00 0.03 0.03 79 1008.6
20260904031204 59 69 0.0 0.0 0.00 0.03 0.03 78 1008.6
20260904025704 59 69 0.0 0.0 0.00 0.03 0.03 77 1008.5
20260904024204 60 69 0.0 0.0 0.00 0.03 0.03 77 1008.5
20260904023704 60 69 0.0 0.0 0.00 0.03 0.03 79 1008.3
20260904023204 60 69 0.0 0.0 0.00 0.03 0.03 79 1008.3
20260904022204 60 69 0.0 0.0 0.00 0.03 0.03 77 1008.2
20260904021704 61 69 0.0 0.0 0.00 0.03 0.03 78 1008.2
20260904021204 61 69 0.0 0.0 0.00 0.03 0.03 77 1008.2
20260904020704 61 69 0.0 0.0 0.00 0.03 0.03 77 1008.2
20260904020204 61 69 0.0 0.0 0.00 0.03 0.03 76 1008.1
20260904015704 62 69 0.0 0.0 0.00 0.03 0.03 76 1008.0
20260904015204 62 69 0.0 0.0 0.00 0.03 0.03 76 1008.0
20260904014704 62 69 0.0 0.0 0.00 0.03 0.03 76 1008.1
20260904014204 62 69 0.0 0.0 0.00 0.03 0.03 74 1008.2
20260904012704 63 69 0.0 0.0 0.00 0.03 0.03 74 1008.1
20260904012204 63 69 0.0 0.0 0.00 0.03 0.03 72 1008.1
20260904011704 63 69 0.0 0.0 0.00 0.03 0.03 74 1008.1
20260904010704 63 69 0.0 1.7 0.00 0.03 0.03 73 1008.0
20260904005704 63 125 0.0 0.9 0.00 0.03 0.03 74 1008.0
20260904004204 63 125 0.0 1.7 0.00 0.03 0.03 72 1007.9
20260904003704 63 125 0.0 0.9 0.00 0.03 0.03 73 1007.9
20260904002704 64 125 0.0 1.7 0.00 0.03 0.03 72 1007.9
20260904001704 64 125 0.0 1.7 0.00 0.03 0.03 72 1007.9
20260904001204 64 125 0.0 1.7 0.00 0.03 0.03 73 1007.9
20260904000704 64 125 0.0 0.9 0.00 0.03 0.03 73 1007.9
20260903234704 64 125 0.0 1.7 0.00 0.03 0.03 75 1007.9
20260903234203 64 125 0.0 1.7 0.00 0.03 0.03 74 1007.9
20260903233204 64 125 0.0 1.7 0.00 0.03 0.03 76 1008.0
20260903232704 64 125 0.0 0.9 0.00 0.03 0.03 72 1008.0
20260903231204 63 128 0.0 1.7 0.00 0.04 0.03 73 1008.0
20260903230704 63 128 0.0 1.7 0.00 0.05 0.03 76 1008.0
20260903225704 63 14 0.0 1.7 0.00 0.07 0.03 73 1008.2
20260903225204 63 14 0.0 1.7 0.00 0.08 0.03 72 1008.1
20260903224204 63 34 0.0 1.7 0.00 0.10 0.03 75 1008.2
20260903223204 63 188 0.0 0.9 0.00 0.11 0.03 74 1008.2
20260903222204 63 186 0.0 0.0 0.00 0.12 0.03 75 1008.2
20260903215704 63 186 0.9 0.9 0.00 0.13 0.03 70 1008.3
20260903214204 64 11 0.0 1.7 0.00 0.14 0.03 72 1008.2
20260903213704 63 11 0.0 0.9 0.00 0.14 0.03 72 1008.1
20260903213204 63 20 0.0 0.9 0.00 0.14 0.03 72 1008.2
20260903211704 63 227 0.0 1.7 0.00 0.15 0.03 73 1008.1
20260903210704 63 213 0.0 1.7 0.00 0.15 0.03 75 1008.1
20260903210204 63 169 0.0 1.7 0.00 0.15 0.03 73 1008.1
20260903205704 63 158 0.0 1.7 0.00 0.15 0.03 74 1008.1
20260903204204 64 154 0.9 1.7 0.00 0.15 0.03 73 1008.0
20260903203205 65 201 0.9 1.7 0.00 0.15 0.03 70 1007.9
20260903202704 65 266 0.0 1.7 0.00 0.15 0.03 74 1007.8
20260903195704 63 222 0.0 1.7 0.00 0.15 0.03 75 1008.0
20260903195205 63 150 0.0 1.7 0.00 0.15 0.03 74 1008.0
20260903193204 63 203 0.0 1.7 0.00 0.17 0.03 76 1007.8
20260903192704 63 179 0.0 1.7 0.00 0.17 0.03 79 1007.8
20260903191704 62 308 0.9 1.7 0.00 0.17 0.03 80 1007.7
20260903191204 62 163 0.0 1.7 0.00 0.17 0.03 81 1007.8
20260903190704 61 173 0.0 1.7 0.00 0.17 0.03 83 1007.8
20260903190203 60 181 0.0 0.9 0.00 0.17 0.03 83 1007.8
20260903185704 60 181 0.0 1.7 0.00 0.17 0.03 82 1007.9
20260903184704 60 181 0.0 1.7 0.00 0.17 0.03 82 1008.0
20260903183704 60 337 0.0 1.7 0.00 0.17 0.03 82 1007.9
20260903182704 60 172 0.0 1.7 0.00 0.17 0.03 83 1007.7
20260903181704 60 308 0.0 0.9 0.00 0.17 0.03 83 1007.7
20260903180705 60 278 0.9 1.7 0.00 0.17 0.03 82 1007.6
20260903175704 60 223 0.0 1.7 0.00 0.17 0.03 84 1007.6
20260903175204 60 138 0.9 1.7 0.00 0.17 0.03 84 1007.6
20260903172204 58 126 0.9 1.7 0.00 0.17 0.03 89 1007.4
20260903171204 58 317 0.0 1.7 0.00 0.17 0.03 89 1007.4
20260903170704 58 345 0.0 1.7 0.00 0.17 0.03 89 1007.5
20260903165703 57 93 0.0 1.7 0.00 0.17 0.03 90 1007.4
20260903164704 57 136 0.0 1.7 0.00 0.17 0.03 90 1007.4
20260903164203 57 136 0.0 1.7 0.00 0.17 0.03 90 1007.4
20260903162704 56 127 0.0 1.7 0.00 0.17 0.03 93 1007.5
20260903160204 56 151 0.0 1.7 0.00 0.17 0.03 93 1007.4
20260903155204 56 151 0.0 1.7 0.00 0.17 0.03 94 1007.3
20260903154704 56 151 0.0 1.7 0.00 0.17 0.03 94 1007.3
20260903153704 56 151 0.0 1.7 0.00 0.17 0.03 94 1007.2
20260903152704 55 151 0.0 1.7 0.00 0.17 0.03 94 1007.2
20260903151704 55 151 0.0 1.7 0.01 0.17 0.03 94 1007.2
20260903151204 55 151 0.9 1.7 0.01 0.17 0.03 94 1007.2
20260903150704 55 151 0.0 1.7 0.01 0.17 0.03 94 1007.2
20260903144704 55 151 0.0 1.7 0.01 0.17 0.03 94 1007.1
20260903142704 55 151 0.0 1.7 0.01 0.17 0.03 94 1007.0
20260903141204 55 144 0.0 0.9 0.00 0.16 0.02 95 1006.8
20260903140704 55 144 0.0 1.7 0.00 0.16 0.02 95 1006.8
20260903140204 55 144 0.0 1.7 0.00 0.16 0.02 95 1006.8
20260903134704 55 144 0.0 1.7 0.00 0.16 0.02 95 1006.7
20260903134204 55 144 0.0 1.7 0.00 0.16 0.02 95 1006.7
20260903131704 54 144 0.0 1.7 0.00 0.16 0.02 95 1006.5
20260903125204 54 144 0.0 1.7 0.00 0.16 0.02 95 1006.4
20260903124704 54 144 0.0 1.7 0.00 0.16 0.02 95 1006.3
20260903124204 55 144 0.0 1.7 0.00 0.16 0.02 95 1006.4
20260903123704 55 144 0.0 1.7 0.00 0.16 0.02 95 1006.3
20260903123204 55 144 0.0 1.7 0.00 0.16 0.02 95 1006.3
20260903122704 55 144 0.0 1.7 0.00 0.16 0.02 95 1006.3
20260903122203 55 144 0.0 1.7 0.00 0.16 0.02 95 1006.3
20260903121704 55 144 0.0 1.7 0.01 0.16 0.02 95 1006.2
20260903120704 55 144 0.0 1.7 0.01 0.16 0.02 95 1006.2
20260903115704 55 144 0.0 1.7 0.02 0.16 0.02 94 1006.1
20260903113204 55 144 0.0 1.7 0.02 0.16 0.02 94 1006.1
20260903112704 55 105 0.0 0.9 0.02 0.16 0.02 93 1006.1
20260903105204 56 112 0.0 1.7 0.00 0.14 0.00 92 1006.1
20260903103204 56 125 0.0 1.7 0.00 0.14 0.00 92 1006.0
20260903102204 56 128 0.0 1.7 0.00 0.14 0.00 93 1006.0
20260903101704 56 128 0.0 1.7 0.00 0.14 0.00 92 1005.9
20260903101204 56 128 0.0 1.7 0.00 0.14 0.00 93 1005.9
20260903100704 56 128 0.0 1.7 0.00 0.14 0.00 92 1005.9
20260903100204 56 128 0.0 1.7 0.00 0.14 0.00 92 1005.9
20260903095704 56 100 0.0 1.7 0.00 0.14 0.00 93 1005.9
20260903095204 56 100 0.0 1.7 0.00 0.14 0.00 93 1005.8
20260903093203 56 157 0.0 1.7 0.00 0.14 0.00 93 1005.8
20260903091204 56 157 0.0 0.9 0.00 0.14 0.00 93 1005.7
20260903090704 56 157 0.0 1.7 0.00 0.14 0.00 93 1005.7
20260903085704 56 83 0.0 1.7 0.00 0.14 0.00 93 1005.6
20260903084704 55 138 0.0 1.7 0.00 0.14 0.00 93 1005.6
20260903081704 55 152 0.0 1.7 0.00 0.14 0.00 93 1005.4
20260903080203 55 152 0.0 1.7 0.00 0.14 0.00 93 1005.4
20260903075704 56 152 0.0 1.7 0.00 0.14 0.00 93 1005.4
20260903074704 56 152 0.0 1.7 0.00 0.14 0.00 93 1005.3
20260903074204 56 152 0.0 1.7 0.00 0.14 0.00 93 1005.4
20260903073203 56 142 0.0 1.7 0.00 0.14 0.00 92 1005.4
20260903072704 56 142 0.0 1.7 0.00 0.14 0.00 92 1005.3
20260903072204 56 142 0.0 1.7 0.00 0.14 0.00 92 1005.3
20260903070704 56 181 0.9 1.7 0.00 0.14 0.00 92 1005.2
20260903065704 56 164 0.0 1.7 0.00 0.14 0.14 93 1005.1
20260903063704 56 150 0.9 0.9 0.00 0.14 0.14 93 1004.9
20260903062704 55 222 0.0 1.7 0.00 0.14 0.14 94 1004.9
20260903062203 55 48 0.9 1.7 0.00 0.14 0.14 94 1004.9
20260903061203 55 150 0.0 1.7 0.00 0.14 0.14 94 1004.9
20260903060704 55 355 0.0 1.7 0.00 0.14 0.14 93 1005.0
20260903055704 55 338 0.0 1.7 0.00 0.14 0.14 93 1005.1
20260903055203 55 338 0.0 1.7 0.00 0.14 0.14 93 1005.1
20260903054204 56 338 0.0 1.7 0.00 0.14 0.14 93 1005.1
20260903051204 56 234 0.0 1.7 0.00 0.14 0.14 92 1005.0
20260903050704 56 8 0.0 1.7 0.00 0.14 0.14 92 1004.9
20260903045203 56 81 0.0 0.9 0.00 0.14 0.14 92 1004.7
20260903044204 57 58 0.9 1.7 0.00 0.14 0.14 92 1004.6
20260903042703 57 138 0.9 1.7 0.00 0.14 0.14 92 1004.6
20260903041704 57 143 0.9 1.7 0.00 0.14 0.14 93 1004.5
20260903041203 57 98 0.9 1.7 0.00 0.14 0.14 93 1004.6
20260903040703 57 163 0.0 1.7 0.00 0.14 0.14 93 1004.5
20260903040203 57 158 0.0 1.7 0.00 0.14 0.14 93 1004.5
20260903035704 57 156 0.9 2.6 0.00 0.14 0.14 93 1004.4